#timestamp,LO_Frequency,Hit 
1502845215.3,286047004.4,N
1502845235.1,286047000.2,N
1502845255.8,286047000.3,N
1502845275.7,286046999.5,N
1502845295.5,286046996.6,N
1502845315.3,286046996.7,N
1502845335.2,286046997.6,N
1502845355.9,286046996.2,N
1502845375.7,286046995.0,N
1502845395.6,286046995.8,N
1502845415.4,286046997.8,N
1502845435.2,286046997.5,N
1502845455.1,286046997.1,N
1502845456.0,286046997.1,N
1502845475.8,286046999.6,N
1502845495.6,286046996.8,N
1502845515.5,286046999.1,N
1502845535.3,286046999.0,N
1502845555.1,286046998.8,N
1502845575.8,286047001.0,N
1502845595.7,286047000.0,N
1502845615.5,286046998.3,N
1502845635.3,286047000.2,N
1502845655.2,286047000.1,N
1502845675.9,286047002.8,N
1502845695.7,286046999.0,N
1502845715.6,286046999.0,N
1502845735.4,286046998.8,N
1502845755.2,286046998.5,N
1502845775.1,286046998.8,N
1502845776.0,286046998.8,N
1502845795.8,286047000.5,N
1502845815.6,286047001.2,N
1502845835.5,286047000.7,N
1502845855.3,286046999.6,N
1502845875.1,286046998.5,N
1502845895.8,286046998.3,N
1502845915.7,286046999.0,N
1502845935.5,286046999.4,N
1502845955.3,286047000.6,N
1502845975.2,286047000.6,N
1502845995.9,286047000.5,N
1502846015.7,286047001.1,N
1502846035.6,286046998.5,N
1502846055.4,286046999.1,N
1502846075.2,286046998.8,N
1502846095.1,286047000.9,N
1502846096.0,286047000.9,N
1502846115.8,286047000.2,N
1502846135.1,286047002.8,N
1502846136.0,286047002.8,N
1502846155.8,286047002.7,N
1502846175.6,286047003.3,N
1502846195.5,286047007.0,P
1502846215.3,286047004.9,N
1502846235.1,286047007.9,N
1502846255.9,286047012.0,P
1502846275.7,286047006.9,N
1502846295.6,286047006.7,N
1502846315.4,286047006.3,N
1502846335.2,286047006.1,N
1502846355.1,286047009.2,P
1502846356.0,286047009.2,P
1502846375.8,286047001.0,N
1502846395.6,286047002.3,N
1502846415.4,286047001.2,N
1502846435.3,286047000.2,N
1502846455.1,286046998.8,N
1502846475.8,286046997.2,N
1502846495.7,286046999.4,N
1502846515.5,286046996.8,N
1502846535.3,286046995.0,N
1502846555.2,286046996.9,N
1502846575.9,286046998.3,N
1502846595.7,286046999.2,N
1502846615.6,286046996.5,N
1502846635.4,286046997.8,N
1502846655.2,286046996.3,N
1502846675.1,286046994.0,N
1502846676.0,286046994.0,N
1502846695.8,286046992.1,N
1502846715.6,286046992.1,N
1502846735.5,286046994.5,N
1502846755.3,286046992.0,N
1502846775.1,286046994.6,N
1502846795.8,286046991.7,N
1502846815.7,286046991.7,N
1502846835.5,286046994.3,N
1502846855.3,286046994.7,N
1502846875.2,286046991.8,N
1502846895.9,286046993.5,N
1502846915.7,286046998.9,N
1502846935.6,286047001.0,N
1502846955.4,286047002.2,N
1502846975.2,286047004.1,N
1502846995.1,286047005.6,N
1502846996.0,286047005.6,N
1502847015.8,286047001.5,N
1502847035.6,286046999.7,N
1502847055.5,286047004.3,N
1502847075.3,286047005.8,N
1502847095.1,286047003.1,N
1502847115.8,286047002.6,N
1502847135.7,286047000.8,N
1502847155.5,286047001.1,N
1502847175.3,286047000.3,N
1502847195.2,286047001.1,N
1502847215.9,286046998.9,N
1502847235.7,286046998.4,N
1502847255.6,286047001.2,N
1502847275.4,286046998.2,N
1502847295.2,286046998.7,N
1502847315.1,286046998.9,N
1502847316.0,286046998.9,N
1502847335.8,286046996.5,N
1502847355.6,286046999.2,N
1502847375.5,286046999.4,N
1502847395.3,286046998.3,N
1502847415.1,286046998.5,N
1502847435.9,286047001.2,N
1502847455.7,286046998.3,N
1502847475.5,286047001.1,N
1502847495.3,286047001.0,N
1502847515.2,286047001.0,N
1502847535.0,286047000.5,N
1502847535.9,286047000.5,N
1502847555.7,286047000.5,N
1502847575.6,286046998.1,N
1502847595.4,286046998.7,N
1502847615.2,286047001.0,N
1502847635.1,286047000.9,N
1502847636.0,286047000.9,N
1502847655.8,286046998.6,N
1502847675.6,286046998.3,N
1502847695.5,286046998.5,N
1502847715.3,286047001.1,N
1502847735.1,286047000.7,N
1502847755.9,286047000.0,N
1502847775.7,286047002.4,N
1502847795.5,286047001.1,N
1502847815.3,286047000.1,N
1502847835.2,286046999.9,N
1502847855.0,286047000.0,N
1502847855.9,286047000.0,N
1502847875.7,286047000.5,N
1502847895.6,286047000.1,N
1502847915.4,286047002.0,N
1502847935.2,286047002.7,N
1502847955.1,286047002.1,N
1502847956.0,286047002.1,N
1502847975.8,286047004.0,P
1502847995.6,286047002.5,N
1502848015.5,286047001.7,N
1502848035.3,286047003.2,N
1502848055.1,286047003.0,N
1502848075.9,286047005.5,P
1502848095.7,286047002.5,N
1502848115.5,286047002.2,N
1502848135.4,286047001.5,N
1502848155.2,286047004.4,P
1502848175.0,286046998.6,N
1502848175.9,286046998.6,N
1502848195.8,286046996.5,N
1502848215.6,286046999.4,N
1502848235.4,286046999.2,N
1502848255.3,286046998.5,N
1502848275.1,286047001.2,N
1502848295.8,286046998.7,N
1502848315.7,286046996.5,N
1502848335.5,286046996.5,N
1502848355.3,286046999.4,N
1502848375.2,286046998.7,N
1502848395.9,286046999.8,N
1502848415.7,286047000.3,N
1502848435.5,286047000.6,N
1502848455.4,286046998.2,N
1502848475.2,286046998.3,N
1502848495.0,286046998.8,N
1502848495.9,286046998.8,N
1502848515.8,286046998.7,N
1502848535.6,286047001.2,N
1502848555.4,286047001.2,N
1502848575.3,286047000.7,N
1502848595.1,286047000.3,N
1502848596.0,286047000.3,N
1502848615.8,286046999.9,N
1502848635.7,286047000.0,N
1502848655.5,286047001.2,N
1502848675.3,286047000.8,N
1502848695.2,286047002.3,N
1502848715.9,286047001.7,N
1502848735.7,286047002.8,N
1502848755.5,286047000.5,N
1502848775.4,286047000.7,N
1502848795.2,286047001.1,N
